Time,TemperatureF,DewpointF,PressureIn,WindDirection,WindDirectionDegrees,WindSpeedMPH,WindSpeedGustMPH,Humidity,HourlyPrecipIn,Conditions,Clouds,dailyrainin,SolarRadiationWatts/m^2,SoftwareType,DateUTC
2013-03-08 00:01:00,36.0,24.0,-100.00,NNE,12,10.0,20.0,62,0.00,,,0.00,0.000000,,2013-03-08 07:01:00,
2013-03-08 00:11:00,36.0,24.0,-100.00,NNE,12,10.0,20.0,62,0.00,,,0.00,0.000000,,2013-03-08 07:11:00,
2013-03-08 00:32:00,35.0,24.0,-100.00,North,3,10.0,17.0,65,0.00,,,0.00,0.000000,,2013-03-08 07:32:00,
2013-03-08 00:42:00,35.0,24.0,-100.00,North,3,10.0,17.0,65,0.00,,,0.00,0.000000,,2013-03-08 07:42:00,
2013-03-08 00:52:00,35.0,24.0,-100.00,North,3,10.0,17.0,65,0.00,,,0.00,0.000000,,2013-03-08 07:52:00,
2013-03-08 01:01:00,35.0,24.0,-100.00,North,3,10.0,17.0,65,0.00,,,0.00,0.000000,,2013-03-08 08:01:00,
2013-03-08 01:11:00,35.0,24.0,-100.00,North,3,10.0,17.0,65,0.00,,,0.00,0.000000,,2013-03-08 08:11:00,
2013-03-08 01:32:00,35.0,25.0,-100.00,North,358,8.0,16.0,67,0.00,,,0.00,0.000000,,2013-03-08 08:32:00,
2013-03-08 01:42:00,35.0,25.0,-100.00,North,358,8.0,16.0,67,0.00,,,0.00,0.000000,,2013-03-08 08:42:00,
2013-03-08 01:52:00,35.0,25.0,-100.00,North,358,8.0,16.0,67,0.00,,,0.00,0.000000,,2013-03-08 08:52:00,
2013-03-08 02:03:00,35.0,25.0,-100.00,North,358,8.0,16.0,67,0.00,,,0.00,0.000000,,2013-03-08 09:03:00,
2013-03-08 02:11:00,35.0,25.0,-100.00,North,358,8.0,16.0,67,0.00,,,0.00,0.000000,,2013-03-08 09:11:00,
2013-03-08 02:32:00,33.0,24.0,-100.00,North,359,5.0,12.0,70,0.00,,,0.00,0.000000,,2013-03-08 09:32:00,
2013-03-08 02:42:00,33.0,24.0,-100.00,North,359,5.0,12.0,70,0.00,,,0.00,0.000000,,2013-03-08 09:42:00,
2013-03-08 02:52:00,33.0,24.0,-100.00,North,359,5.0,12.0,70,0.00,,,0.00,0.000000,,2013-03-08 09:52:00,
2013-03-08 03:01:00,33.0,24.0,-100.00,North,359,5.0,12.0,70,0.00,,,0.00,0.000000,,2013-03-08 10:01:00,
2013-03-08 03:11:00,33.0,24.0,-100.00,North,359,5.0,12.0,70,0.00,,,0.00,0.000000,,2013-03-08 10:11:00,
2013-03-08 03:32:00,30.0,23.0,-100.00,NNW,346,8.0,11.0,76,0.00,,,0.00,0.000000,,2013-03-08 10:32:00,
2013-03-08 03:42:00,30.0,23.0,-100.00,NNW,346,8.0,11.0,76,0.00,,,0.00,0.000000,,2013-03-08 10:42:00,
2013-03-08 03:52:00,30.0,23.0,-100.00,NNW,346,8.0,11.0,76,0.00,,,0.00,0.000000,,2013-03-08 10:52:00,
2013-03-08 04:01:00,30.0,23.0,-100.00,NNW,346,8.0,11.0,76,0.00,,,0.00,0.000000,,2013-03-08 11:01:00,
2013-03-08 04:11:00,30.0,23.0,-100.00,NNW,346,8.0,11.0,76,0.00,,,0.00,0.000000,,2013-03-08 11:11:00,
2013-03-08 04:32:00,30.0,24.0,-100.00,North,7,7.0,10.0,77,0.00,,,0.00,0.000000,,2013-03-08 11:32:00,
2013-03-08 04:42:00,30.0,24.0,-100.00,North,7,7.0,10.0,77,0.00,,,0.00,0.000000,,2013-03-08 11:42:00,
2013-03-08 04:52:00,30.0,24.0,-100.00,North,7,7.0,10.0,77,0.00,,,0.00,0.000000,,2013-03-08 11:52:00,
2013-03-08 05:01:00,30.0,24.0,-100.00,North,7,7.0,10.0,77,0.00,,,0.00,0.000000,,2013-03-08 12:01:00,
2013-03-08 05:11:00,30.0,24.0,-100.00,North,7,7.0,10.0,77,0.00,,,0.00,0.000000,,2013-03-08 12:11:00,
2013-03-08 05:32:00,29.0,25.0,-100.00,North,5,6.0,10.0,83,0.00,,,0.00,0.000000,,2013-03-08 12:32:00,
2013-03-08 05:43:00,29.0,25.0,-100.00,North,5,6.0,10.0,83,0.00,,,0.00,0.000000,,2013-03-08 12:43:00,
2013-03-08 05:53:00,29.0,25.0,-100.00,North,5,6.0,10.0,83,0.00,,,0.00,0.000000,,2013-03-08 12:53:00,
2013-03-08 06:01:00,29.0,25.0,-100.00,North,5,6.0,10.0,83,0.00,,,0.00,0.000000,,2013-03-08 13:01:00,
2013-03-08 06:11:00,29.0,25.0,-100.00,North,5,6.0,10.0,83,0.00,,,0.00,0.000000,,2013-03-08 13:11:00,
2013-03-08 06:42:00,28.0,24.0,-100.00,North,10,6.0,10.0,84,0.00,,,-99.99,0.000000,,2013-03-08 13:42:00,
2013-03-08 06:52:00,28.0,24.0,-100.00,North,10,6.0,10.0,84,0.00,,,-99.99,0.000000,,2013-03-08 13:52:00,
2013-03-08 07:02:00,28.0,24.0,-100.00,North,10,6.0,10.0,84,0.00,,,-99.99,0.000000,,2013-03-08 14:02:00,
2013-03-08 07:11:00,28.0,24.0,-100.00,North,10,6.0,10.0,84,0.00,,,-99.99,0.000000,,2013-03-08 14:11:00,
2013-03-08 07:32:00,29.0,25.0,-100.00,North,5,5.0,9.0,83,0.00,,,0.00,41.000000,,2013-03-08 14:32:00,
2013-03-08 07:42:00,29.0,25.0,-100.00,North,5,5.0,9.0,83,0.00,,,0.00,41.000000,,2013-03-08 14:42:00,
2013-03-08 07:52:00,29.0,25.0,-100.00,North,5,5.0,9.0,83,0.00,,,0.00,41.000000,,2013-03-08 14:52:00,
2013-03-08 08:03:00,29.0,25.0,-100.00,North,5,5.0,9.0,83,0.00,,,0.00,41.000000,,2013-03-08 15:03:00,
2013-03-08 08:11:00,29.0,25.0,-100.00,North,5,5.0,9.0,83,0.00,,,0.00,41.000000,,2013-03-08 15:11:00,
2013-03-08 08:32:00,33.0,25.0,-100.00,NE,41,7.0,11.0,73,0.00,,,0.00,209.000000,,2013-03-08 15:32:00,
2013-03-08 08:43:00,33.0,25.0,-100.00,NE,41,7.0,11.0,73,0.00,,,0.00,209.000000,,2013-03-08 15:43:00,
2013-03-08 08:53:00,33.0,25.0,-100.00,NE,41,7.0,11.0,73,0.00,,,0.00,209.000000,,2013-03-08 15:53:00,
2013-03-08 09:01:00,33.0,25.0,-100.00,NE,41,7.0,11.0,73,0.00,,,0.00,209.000000,,2013-03-08 16:01:00,
2013-03-08 09:11:00,33.0,25.0,-100.00,NE,41,7.0,11.0,73,0.00,,,0.00,209.000000,,2013-03-08 16:11:00,
2013-03-08 09:32:00,35.0,26.0,-100.00,NE,40,6.0,10.0,68,0.00,,,-99.99,315.000000,,2013-03-08 16:32:00,
2013-03-08 09:42:00,35.0,26.0,-100.00,NE,40,6.0,10.0,68,0.00,,,-99.99,315.000000,,2013-03-08 16:42:00,
2013-03-08 09:52:00,35.0,26.0,-100.00,NE,40,6.0,10.0,68,0.00,,,-99.99,315.000000,,2013-03-08 16:52:00,
2013-03-08 10:02:00,35.0,26.0,-100.00,NE,40,6.0,10.0,68,0.00,,,-99.99,315.000000,,2013-03-08 17:02:00,
2013-03-08 10:11:00,35.0,26.0,-100.00,NE,40,6.0,10.0,68,0.00,,,-99.99,315.000000,,2013-03-08 17:11:00,
2013-03-08 10:32:00,36.0,26.0,-100.00,NE,34,8.0,12.0,66,0.00,,,0.00,332.000000,,2013-03-08 17:32:00,
2013-03-08 10:42:00,36.0,26.0,-100.00,NE,34,8.0,12.0,66,0.00,,,0.00,332.000000,,2013-03-08 17:42:00,
2013-03-08 10:52:00,36.0,26.0,-100.00,NE,34,8.0,12.0,66,0.00,,,0.00,332.000000,,2013-03-08 17:52:00,
2013-03-08 11:02:00,36.0,26.0,-100.00,NE,34,8.0,12.0,66,0.00,,,0.00,332.000000,,2013-03-08 18:02:00,
2013-03-08 11:11:00,36.0,26.0,-100.00,NE,34,8.0,12.0,66,0.00,,,0.00,332.000000,,2013-03-08 18:11:00,
2013-03-08 11:32:00,38.0,26.0,-100.00,NE,38,10.0,13.0,62,0.00,,,0.00,451.000000,,2013-03-08 18:32:00,
2013-03-08 11:42:00,38.0,26.0,-100.00,NE,38,10.0,13.0,62,0.00,,,0.00,451.000000,,2013-03-08 18:42:00,
2013-03-08 11:52:00,38.0,26.0,-100.00,NE,38,10.0,13.0,62,0.00,,,0.00,451.000000,,2013-03-08 18:52:00,
2013-03-08 12:01:00,38.0,26.0,-100.00,NE,38,10.0,13.0,62,0.00,,,0.00,451.000000,,2013-03-08 19:01:00,
2013-03-08 12:11:00,38.0,26.0,-100.00,NE,38,10.0,13.0,62,0.00,,,0.00,451.000000,,2013-03-08 19:11:00,
2013-03-08 12:42:00,41.0,26.0,-100.00,NE,42,8.0,16.0,55,0.00,,,0.00,650.000000,,2013-03-08 19:42:00,
2013-03-08 12:52:00,41.0,26.0,-100.00,NE,42,8.0,16.0,55,0.00,,,0.00,650.000000,,2013-03-08 19:52:00,
2013-03-08 13:01:00,41.0,26.0,-100.00,NE,42,8.0,16.0,55,0.00,,,0.00,650.000000,,2013-03-08 20:01:00,
2013-03-08 13:11:00,41.0,26.0,-100.00,NE,42,8.0,16.0,55,0.00,,,0.00,650.000000,,2013-03-08 20:11:00,
2013-03-08 13:32:00,40.0,26.0,-100.00,NNE,33,8.0,15.0,57,0.00,,,0.00,557.000000,,2013-03-08 20:32:00,
2013-03-08 13:42:00,40.0,26.0,-100.00,NNE,33,8.0,15.0,57,0.00,,,0.00,557.000000,,2013-03-08 20:42:00,
2013-03-08 13:53:00,40.0,26.0,-100.00,NNE,33,8.0,15.0,57,0.00,,,0.00,557.000000,,2013-03-08 20:53:00,
2013-03-08 14:02:00,40.0,26.0,-100.00,NNE,33,8.0,15.0,57,0.00,,,0.00,557.000000,,2013-03-08 21:02:00,
2013-03-08 14:11:00,40.0,26.0,-100.00,NNE,33,8.0,15.0,57,0.00,,,0.00,557.000000,,2013-03-08 21:11:00,
2013-03-08 14:33:00,41.0,26.0,-100.00,NE,38,6.0,14.0,55,0.00,,,0.00,411.000000,,2013-03-08 21:33:00,
2013-03-08 14:42:00,41.0,26.0,-100.00,NE,38,6.0,14.0,55,0.00,,,0.00,411.000000,,2013-03-08 21:42:00,
2013-03-08 14:52:00,41.0,26.0,-100.00,NE,38,6.0,14.0,55,0.00,,,0.00,411.000000,,2013-03-08 21:52:00,
2013-03-08 15:01:00,41.0,26.0,-100.00,NE,38,6.0,14.0,55,0.00,,,0.00,411.000000,,2013-03-08 22:01:00,
2013-03-08 15:11:00,41.0,26.0,-100.00,NE,38,6.0,14.0,55,0.00,,,0.00,411.000000,,2013-03-08 22:11:00,
2013-03-08 15:42:00,40.0,26.0,-100.00,East,79,8.0,11.0,56,0.00,,,0.00,304.000000,,2013-03-08 22:42:00,
2013-03-08 15:53:00,40.0,26.0,-100.00,East,79,8.0,11.0,56,0.00,,,0.00,304.000000,,2013-03-08 22:53:00,
2013-03-08 16:01:00,40.0,26.0,-100.00,East,79,8.0,11.0,56,0.00,,,0.00,304.000000,,2013-03-08 23:01:00,
2013-03-08 16:12:00,40.0,26.0,-100.00,East,79,8.0,11.0,56,0.00,,,0.00,304.000000,,2013-03-08 23:12:00,
2013-03-08 16:42:00,39.0,26.0,-100.00,NE,36,5.0,11.0,59,0.00,,,0.00,206.000000,,2013-03-08 23:42:00,
2013-03-08 16:53:00,39.0,26.0,-100.00,NE,36,5.0,11.0,59,0.00,,,0.00,206.000000,,2013-03-08 23:53:00,
2013-03-08 17:02:00,39.0,26.0,-100.00,NE,36,5.0,11.0,59,0.00,,,0.00,206.000000,,2013-03-09 00:02:00,
2013-03-08 17:11:00,39.0,26.0,-100.00,NE,36,5.0,11.0,59,0.00,,,0.00,206.000000,,2013-03-09 00:11:00,
2013-03-08 17:42:00,37.0,26.0,-100.00,NE,41,8.0,11.0,63,0.00,,,0.00,104.000000,,2013-03-09 00:42:00,
2013-03-08 17:52:00,37.0,26.0,-100.00,NE,41,8.0,11.0,63,0.00,,,0.00,104.000000,,2013-03-09 00:52:00,
2013-03-08 18:01:00,37.0,26.0,-100.00,NE,41,8.0,11.0,63,0.00,,,0.00,104.000000,,2013-03-09 01:01:00,
2013-03-08 18:12:00,37.0,26.0,-100.00,NE,41,8.0,11.0,63,0.00,,,0.00,104.000000,,2013-03-09 01:12:00,
2013-03-08 20:32:00,30.0,25.0,-100.00,NNE,19,2.0,9.0,80,-99.99,,,0.00,0.000000,,2013-03-09 03:32:00,
2013-03-08 20:42:00,30.0,25.0,-100.00,NNE,19,2.0,9.0,80,-99.99,,,0.00,0.000000,,2013-03-09 03:42:00,
2013-03-08 20:52:00,30.0,25.0,-100.00,NNE,19,2.0,9.0,80,-99.99,,,0.00,0.000000,,2013-03-09 03:52:00,
2013-03-08 21:01:00,30.0,25.0,-100.00,NNE,19,2.0,9.0,80,-99.99,,,0.00,0.000000,,2013-03-09 04:01:00,
2013-03-08 21:11:00,30.0,25.0,-100.00,NNE,19,2.0,9.0,80,-99.99,,,0.00,0.000000,,2013-03-09 04:11:00,
2013-03-08 21:32:00,28.0,24.0,-100.00,NW,326,4.0,5.0,84,0.00,,,0.00,0.000000,,2013-03-09 04:32:00,
2013-03-08 21:42:00,28.0,24.0,-100.00,NW,326,4.0,5.0,84,0.00,,,0.00,0.000000,,2013-03-09 04:42:00,
2013-03-08 21:52:00,28.0,24.0,-100.00,NW,326,4.0,5.0,84,0.00,,,0.00,0.000000,,2013-03-09 04:52:00,
2013-03-08 22:02:00,28.0,24.0,-100.00,NW,326,4.0,5.0,84,0.00,,,0.00,0.000000,,2013-03-09 05:02:00,
2013-03-08 22:11:00,28.0,24.0,-100.00,NW,326,4.0,5.0,84,0.00,,,0.00,0.000000,,2013-03-09 05:11:00,
2013-03-08 22:32:00,29.0,25.0,-100.00,NE,45,3.0,5.0,84,0.00,,,0.00,0.000000,,2013-03-09 05:32:00,
2013-03-08 22:43:00,29.0,25.0,-100.00,NE,45,3.0,5.0,84,0.00,,,0.00,0.000000,,2013-03-09 05:43:00,
2013-03-08 22:53:00,29.0,25.0,-100.00,NE,45,3.0,5.0,84,0.00,,,0.00,0.000000,,2013-03-09 05:53:00,
2013-03-08 23:02:00,29.0,25.0,-100.00,NE,45,3.0,5.0,84,0.00,,,0.00,0.000000,,2013-03-09 06:02:00,
2013-03-08 23:11:00,29.0,25.0,-100.00,NE,45,3.0,5.0,84,0.00,,,0.00,0.000000,,2013-03-09 06:11:00,
2013-03-08 23:32:00,27.0,24.0,-100.00,NNW,340,4.0,6.0,87,0.00,,,0.00,0.000000,,2013-03-09 06:32:00,
2013-03-08 23:42:00,27.0,24.0,-100.00,NNW,340,4.0,6.0,87,0.00,,,0.00,0.000000,,2013-03-09 06:42:00,
2013-03-08 23:52:00,27.0,24.0,-100.00,NNW,340,4.0,6.0,87,0.00,,,0.00,0.000000,,2013-03-09 06:52:00,